| time (UTC) | temp F | wind direction | speed MPH | gust MPH | rain 1hr in | rain 24hr in | rain mn in | humidity % | barometer mb |
| 20260901195524 | 81 | 360 | 3.0 | 19.0 | 0.00 | 0.00 | 0.00 | 33 | 1013.8 |
| 20260901195045 | 82 | 360 | 1.0 | 19.0 | 0.00 | 0.00 | 0.00 | 32 | 1014.0 |
| 20260901194529 | 82 | 360 | 6.0 | 18.0 | 0.00 | 0.00 | 0.00 | 32 | 1014.0 |
| 20260901194031 | 81 | 360 | 2.0 | 23.0 | 0.00 | 0.00 | 0.00 | 32 | 1013.9 |
| 20260901193531 | 81 | 360 | 12.0 | 23.0 | 0.00 | 0.00 | 0.00 | 32 | 1013.9 |
| 20260901193033 | 81 | 360 | 3.0 | 18.0 | 0.00 | 0.00 | 0.00 | 33 | 1013.9 |
| 20260901192614 | 81 | 360 | 4.0 | 15.0 | 0.00 | 0.00 | 0.00 | 34 | 1014.0 |
| 20260901192115 | 80 | 360 | 0.0 | 9.0 | 0.00 | 0.00 | 0.00 | 36 | 1014.1 |
| 20260901191533 | 79 | 360 | 0.0 | 9.0 | 0.00 | 0.00 | 0.00 | 37 | 1014.2 |
| 20260901191056 | 79 | 360 | 0.0 | 15.0 | 0.00 | 0.00 | 0.00 | 36 | 1014.3 |
| 20260901190056 | 79 | 360 | 6.0 | 14.0 | 0.00 | 0.00 | 0.00 | 36 | 1014.3 |
| 20260901185557 | 80 | 360 | 0.0 | 4.0 | 0.00 | 0.00 | 0.00 | 37 | 1014.5 |
| 20260901185037 | 80 | 360 | 0.0 | 4.0 | 0.00 | 0.00 | 0.00 | 37 | 1014.5 |
| 20260901184558 | 80 | 360 | 0.0 | 4.0 | 0.00 | 0.00 | 0.00 | 37 | 1014.5 |
| 20260901184040 | 81 | 360 | 0.0 | 7.0 | 0.00 | 0.00 | 0.00 | 37 | 1013.7 |
| 20260901183617 | 80 | 360 | 0.0 | 7.0 | 0.00 | 0.00 | 0.00 | 37 | 1013.8 |
| 20260901183036 | 80 | 360 | 0.0 | 0.0 | 0.00 | 0.00 | 0.00 | 37 | 1014.0 |
| 20260901182539 | 80 | 360 | 0.0 | 10.0 | 0.00 | 0.00 | 0.00 | 37 | 1014.0 |
| 20260901182101 | 80 | 360 | 0.0 | 17.0 | 0.00 | 0.00 | 0.00 | 38 | 1014.1 |
| 20260901181541 | 80 | 360 | 6.0 | 17.0 | 0.00 | 0.00 | 0.00 | 38 | 1014.1 |
| 20260901181043 | 80 | 360 | 0.0 | 7.0 | 0.00 | 0.00 | 0.00 | 37 | 1014.1 |
| 20260901180544 | 79 | 360 | 0.0 | 7.0 | 0.00 | 0.00 | 0.00 | 38 | 1014.1 |
| 20260901180024 | 79 | 360 | 0.0 | 0.0 | 0.00 | 0.00 | 0.00 | 38 | 1014.2 |
| 20260901175525 | 78 | 360 | 0.0 | 0.0 | 0.00 | 0.00 | 0.00 | 40 | 1014.3 |
| 20260901175028 | 78 | 360 | 0.0 | 0.0 | 0.00 | 0.00 | 0.00 | 38 | 1014.3 |
| 20260901174529 | 78 | 360 | 0.0 | 5.0 | 0.00 | 0.00 | 0.00 | 39 | 1014.4 |
| 20260901174050 | 78 | 360 | 0.0 | 9.0 | 0.00 | 0.00 | 0.00 | 40 | 1014.5 |
| 20260901173550 | 77 | 360 | 2.0 | 15.0 | 0.00 | 0.00 | 0.00 | 42 | 1014.6 |
| 20260901172550 | 76 | 360 | 10.0 | 15.0 | 0.00 | 0.00 | 0.00 | 41 | 1014.7 |
| 20260901172052 | 76 | 360 | 3.0 | 14.0 | 0.00 | 0.00 | 0.00 | 43 | 1014.8 |
| 20260901171532 | 76 | 360 | 3.0 | 12.0 | 0.00 | 0.00 | 0.00 | 42 | 1014.8 |
| 20260901171035 | 76 | 360 | 2.0 | 18.0 | 0.00 | 0.00 | 0.00 | 43 | 1014.9 |
| 20260901170616 | 76 | 360 | 0.0 | 18.0 | 0.00 | 0.00 | 0.00 | 44 | 1014.9 |
| 20260901170034 | 77 | 360 | 4.0 | 24.0 | 0.00 | 0.00 | 0.00 | 43 | 1014.9 |
| 20260901165537 | 78 | 360 | 16.0 | 24.0 | 0.00 | 0.00 | 0.00 | 42 | 1014.9 |
| 20260901165059 | 77 | 360 | 1.0 | 15.0 | 0.00 | 0.00 | 0.00 | 41 | 1014.9 |
| 20260901164539 | 77 | 360 | 4.0 | 15.0 | 0.00 | 0.00 | 0.00 | 42 | 1015.0 |
| 20260901164122 | 77 | 360 | 0.0 | 13.0 | 0.00 | 0.00 | 0.00 | 44 | 1014.9 |
| 20260901163523 | 76 | 360 | 2.0 | 12.0 | 0.00 | 0.00 | 0.00 | 44 | 1014.9 |
| 20260901163024 | 76 | 360 | 4.0 | 15.0 | 0.00 | 0.00 | 0.00 | 45 | 1014.9 |
| 20260901162526 | 76 | 360 | 3.0 | 15.0 | 0.00 | 0.00 | 0.00 | 44 | 1015.0 |
| 20260901162047 | 76 | 360 | 0.0 | 12.0 | 0.00 | 0.00 | 0.00 | 44 | 1015.0 |
| 20260901161548 | 76 | 360 | 0.0 | 12.0 | 0.00 | 0.00 | 0.00 | 45 | 1015.1 |
| 20260901161050 | 76 | 360 | 0.0 | 3.0 | 0.00 | 0.00 | 0.00 | 45 | 1015.0 |
| 20260901160550 | 75 | 360 | 0.0 | 3.0 | 0.00 | 0.00 | 0.00 | 45 | 1015.0 |
| 20260901160050 | 75 | 360 | 0.0 | 11.0 | 0.00 | 0.00 | 0.00 | 44 | 1015.0 |
| 20260901155029 | 75 | 360 | 0.0 | 13.0 | 0.00 | 0.00 | 0.00 | 45 | 1015.2 |
| 20260901154551 | 75 | 360 | 2.0 | 13.0 | 0.00 | 0.00 | 0.00 | 46 | 1015.3 |
| 20260901154032 | 74 | 360 | 4.0 | 14.0 | 0.00 | 0.00 | 0.00 | 46 | 1015.2 |
| 20260901153612 | 74 | 360 | 4.0 | 21.0 | 0.00 | 0.00 | 0.00 | 46 | 1015.4 |
| 20260901153112 | 74 | 360 | 10.0 | 21.0 | 0.00 | 0.00 | 0.00 | 45 | 1015.4 |
| 20260901152531 | 75 | 360 | 3.0 | 16.0 | 0.00 | 0.00 | 0.00 | 43 | 1015.4 |
| 20260901152033 | 75 | 360 | 3.0 | 12.0 | 0.00 | 0.00 | 0.00 | 44 | 1015.4 |
| 20260901151615 | 75 | 360 | 7.0 | 19.0 | 0.00 | 0.00 | 0.00 | 43 | 1015.4 |
| 20260901151055 | 75 | 360 | 2.0 | 19.0 | 0.00 | 0.00 | 0.00 | 44 | 1015.4 |
| 20260901150534 | 74 | 360 | 1.0 | 18.0 | 0.00 | 0.00 | 0.00 | 45 | 1015.4 |
| 20260901150056 | 74 | 360 | 7.0 | 20.0 | 0.00 | 0.00 | 0.00 | 44 | 1015.4 |
| 20260901145536 | 74 | 360 | 8.0 | 20.0 | 0.00 | 0.00 | 0.00 | 44 | 1015.5 |
| 20260901145038 | 73 | 360 | 2.0 | 16.0 | 0.00 | 0.00 | 0.00 | 45 | 1015.6 |
| 20260901144620 | 73 | 360 | 5.0 | 16.0 | 0.00 | 0.00 | 0.00 | 45 | 1015.6 |
| 20260901144121 | 73 | 360 | 2.0 | 14.0 | 0.00 | 0.00 | 0.00 | 46 | 1015.6 |
| 20260901143539 | 72 | 360 | 3.0 | 16.0 | 0.00 | 0.00 | 0.00 | 46 | 1015.6 |
| 20260901143040 | 72 | 360 | 6.0 | 16.0 | 0.00 | 0.00 | 0.00 | 46 | 1015.7 |
| 20260901142622 | 72 | 360 | 7.0 | 16.0 | 0.00 | 0.00 | 0.00 | 47 | 1015.8 |
| 20260901142101 | 71 | 360 | 3.0 | 19.0 | 0.00 | 0.00 | 0.00 | 47 | 1015.9 |
| 20260901141623 | 71 | 360 | 3.0 | 19.0 | 0.00 | 0.00 | 0.00 | 48 | 1015.9 |
| 20260901141044 | 70 | 360 | 1.0 | 10.0 | 0.00 | 0.00 | 0.00 | 49 | 1016.0 |
| 20260901140042 | 68 | 360 | 1.0 | 8.0 | 0.00 | 0.00 | 0.00 | 52 | 1015.3 |
| 20260901135523 | 67 | 360 | 0.0 | 20.0 | 0.00 | 0.00 | 0.00 | 53 | 1015.3 |
| 20260901135024 | 67 | 360 | 4.0 | 20.0 | 0.00 | 0.00 | 0.00 | 53 | 1015.3 |
| 20260901134546 | 67 | 360 | 1.0 | 14.0 | 0.00 | 0.00 | 0.00 | 53 | 1015.2 |
| 20260901133526 | 67 | 360 | 2.0 | 13.0 | 0.00 | 0.00 | 0.00 | 52 | 1015.0 |
| 20260901133047 | 67 | 360 | 5.0 | 13.0 | 0.00 | 0.00 | 0.00 | 52 | 1015.0 |
| 20260901132527 | 68 | 360 | 1.0 | 16.0 | 0.00 | 0.00 | 0.00 | 52 | 1015.0 |
| 20260901132028 | 68 | 360 | 6.0 | 17.0 | 0.00 | 0.00 | 0.00 | 51 | 1014.9 |
| 20260901131529 | 68 | 360 | 7.0 | 26.0 | 0.00 | 0.00 | 0.00 | 52 | 1014.7 |
| 20260901131111 | 68 | 360 | 8.0 | 26.0 | 0.00 | 0.00 | 0.00 | 52 | 1014.9 |
| 20260901130610 | 68 | 360 | 5.0 | 26.0 | 0.00 | 0.00 | 0.00 | 52 | 1014.9 |
| 20260901130049 | 68 | 360 | 8.0 | 21.0 | 0.00 | 0.00 | 0.00 | 52 | 1015.0 |
| 20260901125529 | 68 | 360 | 5.0 | 21.0 | 0.00 | 0.00 | 0.00 | 52 | 1015.0 |
| 20260901125030 | 68 | 360 | 9.0 | 20.0 | 0.00 | 0.00 | 0.00 | 52 | 1014.8 |
| 20260901124551 | 68 | 360 | 7.0 | 19.0 | 0.00 | 0.00 | 0.00 | 51 | 1014.8 |
| 20260901124052 | 68 | 360 | 9.0 | 22.0 | 0.00 | 0.00 | 0.00 | 51 | 1015.0 |
| 20260901123530 | 68 | 360 | 8.0 | 22.0 | 0.00 | 0.00 | 0.00 | 51 | 1015.2 |
| 20260901123053 | 69 | 360 | 8.0 | 23.0 | 0.00 | 0.00 | 0.00 | 50 | 1015.1 |
| 20260901122553 | 69 | 360 | 11.0 | 23.0 | 0.00 | 0.00 | 0.00 | 50 | 1015.3 |
| 20260901122054 | 69 | 360 | 4.0 | 18.0 | 0.00 | 0.00 | 0.00 | 49 | 1015.1 |
| 20260901121534 | 69 | 360 | 6.0 | 19.0 | 0.00 | 0.00 | 0.00 | 49 | 1015.1 |
| 20260901121037 | 69 | 360 | 4.0 | 19.0 | 0.00 | 0.00 | 0.00 | 49 | 1015.0 |
| 20260901120618 | 69 | 360 | 5.0 | 18.0 | 0.00 | 0.00 | 0.00 | 49 | 1015.1 |
| 20260901120037 | 70 | 360 | 11.0 | 21.0 | 0.00 | 0.00 | 0.00 | 48 | 1015.2 |
| 20260901115559 | 70 | 360 | 10.0 | 21.0 | 0.00 | 0.00 | 0.00 | 48 | 1015.1 |
| 20260901115041 | 70 | 360 | 6.0 | 18.0 | 0.00 | 0.00 | 0.00 | 48 | 1015.0 |
| 20260901114525 | 71 | 360 | 6.0 | 21.0 | 0.00 | 0.00 | 0.00 | 47 | 1015.1 |
| 20260901114027 | 71 | 360 | 6.0 | 21.0 | 0.00 | 0.00 | 0.00 | 47 | 1014.9 |
| 20260901113547 | 71 | 360 | 2.0 | 18.0 | 0.00 | 0.00 | 0.00 | 47 | 1014.9 |
| 20260901112604 | 71 | 360 | 4.0 | 16.0 | 0.00 | 0.00 | 0.00 | 47 | 1014.9 |
| 20260901112028 | 71 | 360 | 4.0 | 16.0 | 0.00 | 0.00 | 0.00 | 47 | 1014.9 |
| 20260901111607 | 71 | 360 | 4.0 | 16.0 | 0.00 | 0.00 | 0.00 | 47 | 1014.9 |
| 20260901111030 | 71 | 360 | 6.0 | 20.0 | 0.00 | 0.00 | 0.00 | 47 | 1014.1 |
| 20260901110530 | 71 | 360 | 8.0 | 20.0 | 0.00 | 0.00 | 0.00 | 47 | 1013.9 |
| 20260901110032 | 71 | 360 | 9.0 | 25.0 | 0.00 | 0.00 | 0.00 | 47 | 1013.9 |
| 20260901105554 | 71 | 360 | 8.0 | 25.0 | 0.00 | 0.00 | 0.00 | 47 | 1013.8 |
| 20260901105033 | 71 | 360 | 6.0 | 22.0 | 0.00 | 0.00 | 0.00 | 47 | 1014.0 |
| 20260901104534 | 71 | 360 | 7.0 | 22.0 | 0.00 | 0.00 | 0.00 | 47 | 1014.1 |
| 20260901104036 | 71 | 360 | 5.0 | 19.0 | 0.00 | 0.00 | 0.00 | 47 | 1014.2 |
| 20260901103557 | 71 | 360 | 8.0 | 19.0 | 0.00 | 0.00 | 0.00 | 47 | 1014.4 |
| 20260901103118 | 71 | 360 | 3.0 | 28.0 | 0.00 | 0.00 | 0.00 | 47 | 1014.2 |
| 20260901102558 | 71 | 360 | 10.0 | 28.0 | 0.00 | 0.00 | 0.00 | 47 | 1014.3 |
| 20260901102038 | 71 | 360 | 6.0 | 20.0 | 0.00 | 0.00 | 0.00 | 47 | 1014.5 |
| 20260901101539 | 71 | 360 | 8.0 | 19.0 | 0.00 | 0.00 | 0.00 | 47 | 1014.4 |
| 20260901101101 | 71 | 360 | 8.0 | 19.0 | 0.00 | 0.00 | 0.00 | 47 | 1014.5 |
| 20260901100620 | 71 | 360 | 11.0 | 22.0 | 0.00 | 0.00 | 0.00 | 47 | 1014.6 |
| 20260901100039 | 72 | 360 | 8.0 | 22.0 | 0.00 | 0.00 | 0.00 | 47 | 1014.7 |
| 20260901095540 | 72 | 360 | 9.0 | 27.0 | 0.00 | 0.00 | 0.00 | 47 | 1014.7 |
| 20260901095122 | 72 | 360 | 12.0 | 27.0 | 0.00 | 0.00 | 0.00 | 47 | 1014.8 |
| 20260901094542 | 72 | 360 | 9.0 | 23.0 | 0.00 | 0.00 | 0.00 | 47 | 1014.9 |
| 20260901094025 | 72 | 360 | 6.0 | 23.0 | 0.00 | 0.00 | 0.00 | 47 | 1015.0 |
| 20260901093524 | 72 | 360 | 4.0 | 21.0 | 0.00 | 0.00 | 0.00 | 48 | 1015.0 |
| 20260901093027 | 72 | 360 | 8.0 | 21.0 | 0.00 | 0.00 | 0.00 | 48 | 1015.1 |
| 20260901092608 | 72 | 360 | 6.0 | 18.0 | 0.00 | 0.00 | 0.00 | 48 | 1015.1 |
| 20260901091547 | 72 | 360 | 5.0 | 14.0 | 0.00 | 0.00 | 0.00 | 48 | 1015.2 |
| 20260901090605 | 73 | 360 | 4.0 | 18.0 | 0.00 | 0.00 | 0.00 | 48 | 1015.4 |
| 20260901090025 | 73 | 360 | 5.0 | 17.0 | 0.00 | 0.00 | 0.00 | 48 | 1015.6 |
| 20260901085525 | 73 | 360 | 7.0 | 17.0 | 0.00 | 0.00 | 0.00 | 49 | 1015.7 |
| 20260901085027 | 73 | 360 | 4.0 | 6.0 | 0.00 | 0.00 | 0.00 | 48 | 1015.7 |
| 20260901084550 | 73 | 360 | 0.0 | 12.0 | 0.00 | 0.00 | 0.00 | 48 | 1015.8 |
| 20260901084031 | 73 | 360 | 0.0 | 12.0 | 0.00 | 0.00 | 0.00 | 48 | 1015.1 |
| 20260901083531 | 71 | 360 | 4.0 | 18.0 | 0.00 | 0.00 | 0.00 | 49 | 1015.3 |
| 20260901083032 | 70 | 360 | 6.0 | 18.0 | 0.00 | 0.00 | 0.00 | 45 | 1015.4 |
| 20260901082533 | 68 | 360 | 5.0 | 13.0 | 0.00 | 0.00 | 0.00 | 38 | 1015.3 |
| 20260901082055 | 67 | 360 | 6.0 | 7.0 | 0.00 | 0.00 | 0.00 | 38 | 1015.5 |
| 20260901081539 | 67 | 360 | 3.0 | 8.0 | 0.00 | 0.00 | 0.00 | 37 | 1015.4 |
| 20260901081058 | 66 | 360 | 4.0 | 8.0 | 0.00 | 0.00 | 0.00 | 37 | 1015.6 |
| 20260901080537 | 66 | 360 | 1.0 | 5.0 | 0.00 | 0.00 | 0.00 | 36 | 1015.7 |
| 20260901075538 | 65 | 360 | 0.0 | 12.0 | 0.00 | 0.00 | 0.00 | 35 | 1015.8 |
| 20260901075041 | 64 | 360 | 8.0 | 12.0 | 0.00 | 0.00 | 0.00 | 36 | 1015.8 |
| 20260901074623 | 64 | 360 | 0.0 | 6.0 | 0.00 | 0.00 | 0.00 | 35 | 1015.8 |
| 20260901074104 | 64 | 360 | 4.0 | 5.0 | 0.00 | 0.00 | 0.00 | 35 | 1015.8 |
| 20260901073603 | 64 | 360 | 0.0 | 3.0 | 0.00 | 0.00 | 0.00 | 36 | 1015.9 |
| 20260901073104 | 64 | 360 | 1.0 | 4.0 | 0.00 | 0.00 | 0.00 | 36 | 1015.8 |
| 20260901072524 | 64 | 360 | 3.0 | 4.0 | 0.00 | 0.00 | 0.00 | 34 | 1015.8 |
| 20260901072024 | 64 | 360 | 0.0 | 3.0 | 0.00 | 0.00 | 0.00 | 35 | 1015.9 |
| 20260901071526 | 64 | 360 | 1.0 | 6.0 | 0.00 | 0.00 | 0.00 | 35 | 1015.9 |
| 20260901071049 | 64 | 360 | 2.0 | 6.0 | 0.00 | 0.00 | 0.00 | 34 | 1015.9 |
| 20260901070529 | 64 | 360 | 4.0 | 5.0 | 0.00 | 0.00 | 0.00 | 35 | 1015.8 |
| 20260901070051 | 64 | 360 | 2.0 | 5.0 | 0.00 | 0.00 | 0.00 | 34 | 1015.8 |
| 20260901065530 | 65 | 360 | 1.0 | 3.0 | 0.00 | 0.00 | 0.00 | 33 | 1015.8 |
| 20260901065032 | 65 | 360 | 0.0 | 0.0 | 0.00 | 0.00 | 0.00 | 33 | 1016.0 |
| 20260901064533 | 65 | 360 | 0.0 | 1.0 | 0.00 | 0.00 | 0.00 | 34 | 1016.1 |
| 20260901064057 | 65 | 360 | 0.0 | 2.0 | 0.00 | 0.00 | 0.00 | 33 | 1016.0 |
| 20260901063555 | 65 | 360 | 1.0 | 4.0 | 0.00 | 0.00 | 0.00 | 32 | 1016.0 |
| 20260901063036 | 65 | 360 | 1.0 | 5.0 | 0.00 | 0.00 | 0.00 | 32 | 1016.1 |
| 20260901062558 | 65 | 360 | 0.0 | 4.0 | 0.00 | 0.00 | 0.00 | 32 | 1016.2 |
| 20260901062059 | 66 | 360 | 0.0 | 0.0 | 0.00 | 0.00 | 0.00 | 31 | 1016.1 |
| 20260901061559 | 67 | 360 | 0.0 | 0.0 | 0.00 | 0.00 | 0.00 | 31 | 1016.1 |
| 20260901060601 | 67 | 360 | 0.0 | 2.0 | 0.00 | 0.00 | 0.00 | 29 | 1016.1 |
| 20260901060041 | 67 | 360 | 0.0 | 2.0 | 0.00 | 0.00 | 0.00 | 29 | 1016.1 |
| 20260901055523 | 67 | 360 | 0.0 | 2.0 | 0.00 | 0.00 | 0.00 | 30 | 1016.1 |
| 20260901055044 | 67 | 360 | 1.0 | 2.0 | 0.00 | 0.00 | 0.00 | 30 | 1016.2 |
| 20260901054524 | 67 | 360 | 0.0 | 3.0 | 0.00 | 0.00 | 0.00 | 30 | 1016.1 |
| 20260901054047 | 66 | 360 | 0.0 | 4.0 | 0.00 | 0.00 | 0.00 | 31 | 1016.2 |
| 20260901053527 | 67 | 360 | 2.0 | 4.0 | 0.00 | 0.00 | 0.00 | 31 | 1016.2 |
| 20260901053033 | 67 | 360 | 2.0 | 6.0 | 0.00 | 0.00 | 0.00 | 31 | 1016.2 |
| 20260901052536 | 66 | 360 | 1.0 | 6.0 | 0.00 | 0.00 | 0.00 | 31 | 1016.2 |
| 20260901052036 | 66 | 360 | 0.0 | 3.0 | 0.00 | 0.00 | 0.00 | 31 | 1016.3 |
| 20260901051538 | 66 | 360 | 1.0 | 3.0 | 0.00 | 0.00 | 0.00 | 31 | 1016.3 |
| 20260901051121 | 66 | 360 | 0.0 | 6.0 | 0.00 | 0.00 | 0.00 | 32 | 1016.4 |
| 20260901050600 | 66 | 360 | 4.0 | 6.0 | 0.00 | 0.00 | 0.00 | 33 | 1016.5 |
| 20260901050121 | 66 | 360 | 0.0 | 6.0 | 0.00 | 0.00 | 0.00 | 31 | 1016.5 |
| 20260901045601 | 66 | 360 | 5.0 | 6.0 | 0.00 | 0.00 | 0.00 | 33 | 1016.5 |
| 20260901045038 | 67 | 360 | 3.0 | 7.0 | 0.00 | 0.00 | 0.00 | 32 | 1016.8 |
| 20260901044600 | 67 | 360 | 1.0 | 7.0 | 0.00 | 0.00 | 0.00 | 32 | 1016.6 |
| 20260901044102 | 68 | 360 | 2.0 | 5.0 | 0.00 | 0.00 | 0.00 | 27 | 1016.5 |
| 20260901043522 | 68 | 360 | 0.0 | 6.0 | 0.00 | 0.00 | 0.00 | 27 | 1016.3 |
| 20260901043023 | 68 | 360 | 3.0 | 6.0 | 0.00 | 0.00 | 0.00 | 27 | 1016.2 |
| 20260901042524 | 68 | 360 | 1.0 | 5.0 | 0.00 | 0.00 | 0.00 | 27 | 1016.4 |
| 20260901042025 | 68 | 360 | 0.0 | 5.0 | 0.00 | 0.00 | 0.00 | 27 | 1016.4 |
| 20260901041527 | 68 | 360 | 4.0 | 5.0 | 0.00 | 0.00 | 0.00 | 26 | 1016.4 |
| 20260901041029 | 69 | 360 | 3.0 | 10.0 | 0.00 | 0.00 | 0.00 | 25 | 1016.4 |
| 20260901040549 | 68 | 360 | 5.0 | 10.0 | 0.00 | 0.00 | 0.00 | 26 | 1016.4 |
| 20260901040029 | 67 | 360 | 6.0 | 9.0 | 0.00 | 0.00 | 0.00 | 27 | 1016.4 |
| 20260901035529 | 67 | 360 | 1.0 | 5.0 | 0.00 | 0.00 | 0.00 | 29 | 1016.4 |
| 20260901035111 | 66 | 360 | 2.0 | 7.0 | 0.00 | 0.00 | 0.00 | 28 | 1016.4 |
| 20260901034611 | 66 | 360 | 4.0 | 7.0 | 0.00 | 0.00 | 0.00 | 29 | 1016.3 |
| 20260901034052 | 66 | 360 | 2.0 | 7.0 | 0.00 | 0.00 | 0.00 | 29 | 1016.1 |
| 20260901033551 | 66 | 360 | 4.0 | 7.0 | 0.00 | 0.00 | 0.00 | 29 | 1016.1 |
| 20260901033030 | 66 | 360 | 4.0 | 7.0 | 0.00 | 0.00 | 0.00 | 29 | 1016.0 |
| 20260901032554 | 66 | 360 | 6.0 | 7.0 | 0.00 | 0.00 | 0.00 | 29 | 1016.0 |
| 20260901031555 | 66 | 360 | 4.0 | 9.0 | 0.00 | 0.00 | 0.00 | 29 | 1016.0 |
| 20260901031035 | 67 | 360 | 6.0 | 9.0 | 0.00 | 0.00 | 0.00 | 28 | 1015.9 |
| 20260901030536 | 68 | 360 | 1.0 | 7.0 | 0.00 | 0.00 | 0.00 | 29 | 1015.9 |
| 20260901030038 | 67 | 360 | 5.0 | 9.0 | 0.00 | 0.00 | 0.00 | 28 | 1015.8 |
| 20260901025523 | 68 | 360 | 7.0 | 9.0 | 0.00 | 0.00 | 0.00 | 29 | 1015.7 |
| 20260901025045 | 70 | 360 | 0.0 | 1.0 | 0.00 | 0.00 | 0.00 | 27 | 1015.5 |
| 20260901024524 | 70 | 360 | 0.0 | 2.0 | 0.00 | 0.00 | 0.00 | 27 | 1015.5 |
| 20260901024047 | 70 | 360 | 0.0 | 3.0 | 0.00 | 0.00 | 0.00 | 28 | 1015.3 |
| 20260901023608 | 70 | 360 | 2.0 | 4.0 | 0.00 | 0.00 | 0.00 | 28 | 1015.2 |
| 20260901023126 | 71 | 360 | 2.0 | 4.0 | 0.00 | 0.00 | 0.00 | 27 | 1015.2 |
| 20260901022622 | 73 | 360 | 3.0 | 4.0 | 0.00 | 0.00 | 0.00 | 26 | 1015.1 |
| 20260901022042 | 74 | 360 | 0.0 | 4.0 | 0.00 | 0.00 | 0.00 | 24 | 1015.1 |
| 20260901021604 | 76 | 360 | 0.0 | 0.0 | 0.00 | 0.00 | 0.00 | 25 | 1015.0 |
| 20260901021045 | 76 | 360 | 0.0 | 0.0 | 0.00 | 0.00 | 0.00 | 25 | 1015.1 |
| 20260901020545 | 77 | 360 | 0.0 | 0.0 | 0.00 | 0.00 | 0.00 | 24 | 1015.1 |
| 20260901020046 | 78 | 360 | 0.0 | 0.0 | 0.00 | 0.00 | 0.00 | 23 | 1015.1 |
| 20260901015607 | 79 | 360 | 0.0 | 0.0 | 0.00 | 0.00 | 0.00 | 23 | 1015.2 |
| 20260901015026 | 80 | 360 | 0.0 | 3.0 | 0.00 | 0.00 | 0.00 | 22 | 1015.1 |
| 20260901014532 | 81 | 360 | 0.0 | 3.0 | 0.00 | 0.00 | 0.00 | 22 | 1015.1 |
| 20260901014034 | 81 | 360 | 1.0 | 3.0 | 0.00 | 0.00 | 0.00 | 22 | 1015.1 |
| 20260901013615 | 82 | 360 | 0.0 | 0.0 | 0.00 | 0.00 | 0.00 | 21 | 1015.0 |
| 20260901013110 | 83 | 360 | 0.0 | 0.0 | 0.00 | 0.00 | 0.00 | 21 | 1015.0 |
| 20260901012610 | 83 | 360 | 0.0 | 0.0 | 0.00 | 0.00 | 0.00 | 21 | 1015.0 |
| 20260901012029 | 83 | 360 | 0.0 | 4.0 | 0.00 | 0.00 | 0.00 | 21 | 1015.0 |
| 20260901011534 | 83 | 360 | 0.0 | 4.0 | 0.00 | 0.00 | 0.00 | 21 | 1015.0 |
| 20260901011036 | 83 | 360 | 0.0 | 0.0 | 0.00 | 0.00 | 0.00 | 21 | 1015.1 |
| 20260901010557 | 83 | 360 | 0.0 | 0.0 | 0.00 | 0.00 | 0.00 | 22 | 1015.0 |
| 20260901010058 | 84 | 360 | 0.0 | 0.0 | 0.00 | 0.00 | 0.00 | 23 | 1015.0 |
| 20260901005537 | 84 | 360 | 0.0 | 0.0 | 0.00 | 0.00 | 0.00 | 21 | 1015.1 |
| 20260901005119 | 84 | 360 | 0.0 | 0.0 | 0.00 | 0.00 | 0.00 | 22 | 1015.1 |
| 20260901004539 | 84 | 360 | 0.0 | 0.0 | 0.00 | 0.00 | 0.00 | 22 | 1015.0 |
| 20260901004102 | 84 | 360 | 0.0 | 0.0 | 0.00 | 0.00 | 0.00 | 23 | 1015.0 |
| 20260901003602 | 85 | 360 | 0.0 | 0.0 | 0.00 | 0.00 | 0.00 | 22 | 1015.0 |
| 20260901003103 | 85 | 360 | 0.0 | 0.0 | 0.00 | 0.00 | 0.00 | 21 | 1014.9 |
| 20260901002623 | 85 | 360 | 0.0 | 0.0 | 0.00 | 0.00 | 0.00 | 22 | 1014.9 |
| 20260901002103 | 85 | 360 | 0.0 | 0.0 | 0.00 | 0.00 | 0.00 | 21 | 1015.0 |
| 20260901001523 | 85 | 360 | 0.0 | 0.0 | 0.00 | 0.00 | 0.00 | 21 | 1014.9 |
| 20260901001026 | 85 | 360 | 0.0 | 0.0 | 0.00 | 0.00 | 0.00 | 21 | 1014.9 |
| 20260901000049 | 85 | 360 | 0.0 | 0.0 | 0.00 | 0.00 | 0.00 | 21 | 1014.8 |
| 20260831235529 | 85 | 360 | 0.0 | 0.0 | 0.00 | 0.00 | 0.00 | 21 | 1014.8 |
| 20260831235029 | 85 | 360 | 0.0 | 4.0 | 0.00 | 0.00 | 0.00 | 21 | 1014.9 |
| 20260831234031 | 86 | 360 | 0.0 | 0.0 | 0.00 | 0.00 | 0.00 | 21 | 1014.9 |
| 20260831233531 | 85 | 360 | 0.0 | 3.0 | 0.00 | 0.00 | 0.00 | 21 | 1015.0 |
| 20260831233032 | 85 | 360 | 0.0 | 5.0 | 0.00 | 0.00 | 0.00 | 21 | 1014.9 |
| 20260831232554 | 85 | 360 | 0.0 | 5.0 | 0.00 | 0.00 | 0.00 | 21 | 1014.9 |
| 20260831232034 | 85 | 360 | 0.0 | 10.0 | 0.00 | 0.00 | 0.00 | 21 | 1015.0 |
| 20260831231536 | 84 | 360 | 4.0 | 10.0 | 0.00 | 0.00 | 0.00 | 21 | 1015.1 |
| 20260831231039 | 84 | 360 | 0.0 | 4.0 | 0.00 | 0.00 | 0.00 | 22 | 1015.1 |
| 20260831225537 | 85 | 360 | 0.0 | 9.0 | 0.00 | 0.00 | 0.00 | 22 | 1015.1 |
| 20260831225119 | 85 | 360 | 3.0 | 9.0 | 0.00 | 0.00 | 0.00 | 21 | 1015.2 |
| 20260831224115 | 85 | 360 | 1.0 | 10.0 | 0.00 | 0.00 | 0.00 | 21 | 1015.4 |
| 20260831223554 | 85 | 360 | 0.0 | 11.0 | 0.00 | 0.00 | 0.00 | 21 | 1015.3 |
| 20260831223034 | 85 | 360 | 6.0 | 11.0 | 0.00 | 0.00 | 0.00 | 21 | 1015.4 |
| 20260831222557 | 85 | 360 | 3.0 | 9.0 | 0.00 | 0.00 | 0.00 | 21 | 1015.5 |
| 20260831222118 | 85 | 360 | 1.0 | 8.0 | 0.00 | 0.00 | 0.00 | 21 | 1015.5 |
| 20260831221537 | 85 | 360 | 2.0 | 9.0 | 0.00 | 0.00 | 0.00 | 21 | 1015.5 |
| 20260831221039 | 85 | 360 | 1.0 | 10.0 | 0.00 | 0.00 | 0.00 | 22 | 1015.5 |
| 20260831220538 | 85 | 360 | 3.0 | 10.0 | 0.00 | 0.00 | 0.00 | 21 | 1015.7 |
| 20260831220039 | 85 | 360 | 1.0 | 9.0 | 0.00 | 0.00 | 0.00 | 21 | 1015.8 |
| 20260831215540 | 84 | 360 | 0.0 | 11.0 | 0.00 | 0.00 | 0.00 | 21 | 1015.8 |
| 20260831215041 | 85 | 360 | 4.0 | 11.0 | 0.00 | 0.00 | 0.00 | 21 | 1016.0 |
| 20260831214542 | 84 | 360 | 0.0 | 11.0 | 0.00 | 0.00 | 0.00 | 21 | 1016.1 |
| 20260831214125 | 84 | 360 | 0.0 | 4.0 | 0.00 | 0.00 | 0.00 | 21 | 1016.1 |
| 20260831213625 | 84 | 360 | 2.0 | 10.0 | 0.00 | 0.00 | 0.00 | 20 | 1016.1 |
| 20260831213103 | 84 | 360 | 5.0 | 10.0 | 0.00 | 0.00 | 0.00 | 22 | 1016.1 |
| 20260831212523 | 85 | 360 | 3.0 | 10.0 | 0.00 | 0.00 | 0.00 | 22 | 1016.2 |
| 20260831212025 | 84 | 360 | 4.0 | 10.0 | 0.00 | 0.00 | 0.00 | 21 | 1016.3 |
| 20260831211607 | 84 | 360 | 0.0 | 10.0 | 0.00 | 0.00 | 0.00 | 21 | 1016.5 |
| 20260831211046 | 84 | 360 | 3.0 | 12.0 | 0.00 | 0.00 | 0.00 | 23 | 1016.6 |
| 20260831210525 | 84 | 360 | 6.0 | 13.0 | 0.00 | 0.00 | 0.00 | 22 | 1016.6 |
| 20260831210025 | 84 | 360 | 2.0 | 20.0 | 0.00 | 0.00 | 0.00 | 22 | 1016.8 |
| 20260831205527 | 84 | 360 | 10.0 | 20.0 | 0.00 | 0.00 | 0.00 | 22 | 1016.9 |
| 20260831205028 | 84 | 360 | 0.0 | 16.0 | 0.00 | 0.00 | 0.00 | 21 | 1016.9 |
| 20260831204533 | 84 | 360 | 5.0 | 19.0 | 0.00 | 0.00 | 0.00 | 21 | 1017.0 |
| 20260831203529 | 83 | 360 | 10.0 | 23.0 | 0.00 | 0.00 | 0.00 | 22 | 1017.0 |
| 20260831203050 | 83 | 360 | 11.0 | 23.0 | 0.00 | 0.00 | 0.00 | 22 | 1017.1 |
| 20260831202550 | 83 | 360 | 7.0 | 15.0 | 0.00 | 0.00 | 0.00 | 22 | 1017.1 |
| 20260831202111 | 82 | 360 | 0.0 | 11.0 | 0.00 | 0.00 | 0.00 | 21 | 1017.1 |
| 20260831201611 | 82 | 360 | 0.0 | 12.0 | 0.00 | 0.00 | 0.00 | 20 | 1017.2 |
| 20260831201052 | 83 | 360 | 5.0 | 16.0 | 0.00 | 0.00 | 0.00 | 21 | 1017.3 |
| 20260831200051 | 83 | 360 | 5.0 | 13.0 | 0.00 | 0.00 | 0.00 | 21 | 1017.3 |